QPF
0.00 0.00 0.00 0.00 0.00 0.00 0.00 0.00 0.00 0.00 0.00 0.00 0.00 0.00 0.00 0.00 0.00 0.00 0.00 0.00 0.00 0.00 0.00 0.00 0.00 0.00 0.00 0.00 0.00 0.00 0.00 0.00 0.00 0.01 0.02 0.03 0.03 0.04
0.00 0.00 0.00 0.00 0.00 0.00 0.00 0.00 0.00 0.00 0.00 0.00 0.00 0.00 0.00 0.00 0.00 0.00 0.00 0.00 0.00 0.00 0.00 0.00 0.00 0.00 0.00 0.01 0.01 0.01 0.01 0.00 0.00 0.01 0.02 0.02 0.03 0.03
0.00 0.00 0.00 0.00 0.00 0.00 0.00 0.00 0.00 0.00 0.01 0.00 0.00 0.01 0.01 0.02 0.01 0.01 0.01 0.01 0.00 0.00 0.00 0.00 0.01 0.01 0.01 0.01 0.02 0.02 0.02 0.01 0.01 0.01 0.02 0.02 0.03 0.04
0.00 0.00 0.00 0.00 0.00 0.00 0.00 0.00 0.00 0.01 0.02 0.02 0.01 0.01 0.02 0.02 0.02 0.02 0.01 0.01 0.01 0.01 0.00 0.00 0.00 0.01 0.01 0.01 0.02 0.02 0.02 0.01 0.01 0.01 0.02 0.03 0.04 0.06
0.00 0.00 0.00 0.00 0.00 0.00 0.00 0.01 0.01 0.01 0.03 0.03 0.03 0.02 0.02 0.02 0.03 0.02 0.02 0.03 0.01 0.01 0.00 0.00 0.00 0.00 0.00 0.01 0.01 0.01 0.01 0.01 0.01 0.02 0.02 0.02 0.04 0.06
0.00 0.00 0.00 0.00 0.00 0.01 0.01 0.01 0.02 0.03 0.04 0.05 0.04 0.03 0.02 0.01 0.03 0.03 0.03 0.02 0.02 0.01 0.01 0.01 0.01 0.00 0.00 0.00 0.01 0.01 0.01 0.01 0.01 0.02 0.02 0.02 0.03 0.03
0.00 0.00 0.00 0.00 0.00 0.01 0.01 0.02 0.04 0.05 0.05 0.05 0.04 0.03 0.02 0.02 0.03 0.03 0.04 0.03 0.01 0.01 0.02 0.03 0.03 0.03 0.03 0.02 0.01 0.01 0.01 0.01 0.01 0.01 0.02 0.02 0.03 0.03
0.00 0.00 0.00 0.00 0.00 0.00 0.00 0.01 0.04 0.05 0.05 0.05 0.05 0.05 0.03 0.03 0.04 0.04 0.04 0.03 0.02 0.02 0.04 0.02 0.02 0.03 0.04 0.04 0.03 0.01 0.00 0.00 0.00 0.01 0.01 0.01 0.01 0.02
0.00 0.00 0.00 0.00 0.01 0.01 0.01 0.01 0.01 0.01 0.02 0.05 0.06 0.06 0.06 0.05 0.06 0.06 0.05 0.05 0.04 0.03 0.05 0.04 0.03 0.04 0.03 0.02 0.01 0.00 0.00 0.00 0.00 0.00 0.00 0.01 0.01 0.01
0.00 0.00 0.01 0.01 0.01 0.01 0.01 0.01 0.01 0.01 0.02 0.03 0.04 0.05 0.05 0.04 0.05 0.05 0.05 0.05 0.03 0.04 0.07 0.06 0.04 0.04 0.03 0.04 0.03 0.01 0.01 0.01 0.00 0.00 0.00 0.00 0.00 0.00
0.00 0.00 0.01 0.01 0.01 0.00 0.01 0.01 0.01 0.01 0.01 0.01 0.02 0.02 0.02 0.03 0.03 0.04 0.05 0.05 0.03 0.02 0.06 0.08 0.06 0.04 0.03 0.04 0.04 0.02 0.01 0.01 0.01 0.01 0.01 0.01 0.01 0.00
0.00 0.00 0.00 0.00 0.00 0.00 0.00 0.01 0.02 0.02 0.02 0.03 0.03 0.03 0.04 0.04 0.03 0.05 0.05 0.05 0.05 0.04 0.05 0.05 0.05 0.05 0.04 0.04 0.04 0.04 0.03 0.03 0.03 0.03 0.02 0.02 0.02 0.02
0.00 0.01 0.01 0.00 0.00 0.00 0.00 0.02 0.02 0.01 0.03 0.05 0.05 0.04 0.04 0.04 0.05 0.05 0.04 0.05 0.06 0.07 0.05 0.05 0.04 0.05 0.04 0.03 0.03 0.04 0.04 0.03 0.03 0.03 0.03 0.03 0.02 0.02
0.01 0.01 0.01 0.00 0.00 0.00 0.01 0.01 0.01 0.02 0.05 0.05 0.04 0.04 0.04 0.04 0.04 0.04 0.03 0.04 0.05 0.05 0.04 0.04 0.05 0.04 0.04 0.03 0.03 0.02 0.03 0.03 0.03 0.03 0.03 0.03 0.02 0.02
0.01 0.01 0.00 0.00 0.00 0.02 0.01 0.00 0.02 0.05 0.04 0.04 0.04 0.04 0.04 0.04 0.03 0.03 0.03 0.03 0.04 0.04 0.04 0.04 0.05 0.04 0.04 0.03 0.03 0.03 0.02 0.02 0.03 0.03 0.03 0.04 0.03 0.02
0.01 0.01 0.00 0.00 0.01 0.01 0.02 0.03 0.05 0.05 0.04 0.04 0.05 0.04 0.03 0.03 0.03 0.03 0.03 0.03 0.03 0.04 0.04 0.03 0.04 0.04 0.03 0.03 0.03 0.03 0.03 0.03 0.03 0.04 0.05 0.06 0.06 0.05
0.00 0.01 0.02 0.01 0.01 0.01 0.02 0.04 0.06 0.06 0.05 0.04 0.04 0.04 0.03 0.03 0.03 0.03 0.03 0.03 0.03 0.04 0.04 0.04 0.04 0.04 0.03 0.02 0.03 0.03 0.03 0.04 0.05 0.06 0.07 0.09 0.09 0.07
0.01 0.01 0.01 0.01 0.01 0.01 0.02 0.03 0.05 0.05 0.05 0.05 0.05 0.04 0.04 0.04 0.04 0.04 0.04 0.04 0.04 0.04 0.03 0.03 0.03 0.02 0.02 0.02 0.05 0.06 0.05 0.06 0.08 0.08 0.07 0.08 0.11 0.10
0.01 0.01 0.01 0.01 0.02 0.02 0.02 0.02 0.03 0.04 0.04 0.04 0.05 0.04 0.04 0.04 0.04 0.03 0.03 0.03 0.03 0.03 0.02 0.02 0.01 0.01 0.02 0.03 0.06 0.11 0.10 0.08 0.07 0.06 0.06 0.07 0.11 0.12
0.01 0.01 0.01 0.02 0.02 0.02 0.01 0.02 0.02 0.02 0.02 0.02 0.02 0.03 0.03 0.04 0.03 0.02 0.02 0.02 0.02 0.01 0.01 0.01 0.01 0.02 0.03 0.04 0.09 0.14 0.13 0.07 0.05 0.06 0.09 0.10 0.11 0.12
0.01 0.01 0.02 0.02 0.02 0.01 0.01 0.01 0.01 0.02 0.01 0.01 0.01 0.02 0.02 0.02 0.02 0.02 0.01 0.01 0.01 0.01 0.01 0.02 0.03 0.02 0.02 0.01 0.06 0.12 0.15 0.17 0.13 0.11 0.11 0.12 0.11 0.10
0.01 0.01 0.01 0.02 0.02 0.02 0.01 0.01 0.01 0.01 0.01 0.00 0.00 0.00 0.01 0.01 0.01 0.01 0.01 0.01 0.01 0.01 0.01 0.02 0.02 0.01 0.00 0.01 0.06 0.12 0.14 0.14 0.13 0.14 0.15 0.12 0.09 0.09
0.01 0.01 0.01 0.01 0.01 0.01 0.00 0.00 0.01 0.01 0.00 0.00 0.00 0.00 0.00 0.00 0.00 0.00 0.00 0.00 0.00 0.00 0.00 0.01 0.01 0.00 0.00 0.00 0.02 0.04 0.04 0.04 0.03 0.04 0.09 0.12 0.10 0.11
MSLP
1022.32 1022.22 1022.07 1021.83 1021.52 1021.14 1020.72 1020.29 1019.89 1019.54 1019.25 1019.03 1018.87 1018.75 1018.64 1018.53 1018.40 1018.24 1018.06 1017.87 1017.66 1017.46 1017.27 1017.09 1016.91 1016.73 1016.56 1016.37 1016.18 1015.98 1015.79 1015.61 1015.45 1015.34 1015.26 1015.23 1015.24 1015.30
1022.36 1022.25 1022.10 1021.88 1021.59 1021.24 1020.84 1020.43 1020.02 1019.65 1019.33 1019.06 1018.83 1018.64 1018.45 1018.25 1018.03 1017.78 1017.51 1017.22 1016.94 1016.67 1016.42 1016.19 1016.00 1015.83 1015.68 1015.55 1015.42 1015.30 1015.18 1015.07 1014.96 1014.87 1014.80 1014.75 1014.74 1014.76
1022.37 1022.27 1022.13 1021.95 1021.70 1021.39 1021.04 1020.65 1020.26 1019.88 1019.53 1019.20 1018.91 1018.63 1018.35 1018.05 1017.73 1017.38 1017.01 1016.62 1016.23 1015.87 1015.54 1015.26 1015.03 1014.85 1014.72 1014.62 1014.55 1014.50 1014.45 1014.40 1014.35 1014.29 1014.23 1014.18 1014.15 1014.14
1022.41 1022.32 1022.21 1022.06 1021.86 1021.60 1021.28 1020.93 1020.55 1020.16 1019.78 1019.41 1019.05 1018.68 1018.31 1017.92 1017.49 1017.03 1016.55 1016.06 1015.57 1015.10 1014.68 1014.32 1014.03 1013.82 1013.68 1013.60 1013.57 1013.58 1013.59 1013.61 1013.61 1013.59 1013.55 1013.50 1013.46 1013.44
1022.51 1022.43 1022.34 1022.22 1022.05 1021.82 1021.54 1021.20 1020.83 1020.43 1020.02 1019.60 1019.17 1018.73 1018.27 1017.79 1017.27 1016.72 1016.13 1015.54 1014.94 1014.38 1013.86 1013.41 1013.05 1012.79 1012.62 1012.54 1012.53 1012.57 1012.63 1012.70 1012.75 1012.77 1012.77 1012.74 1012.72 1012.70
1022.70 1022.60 1022.51 1022.39 1022.24 1022.02 1021.74 1021.41 1021.02 1020.60 1020.15 1019.67 1019.19 1018.68 1018.15 1017.60 1017.01 1016.38 1015.72 1015.05 1014.37 1013.72 1013.11 1012.58 1012.14 1011.82 1011.60 1011.50 1011.49 1011.54 1011.63 1011.74 1011.84 1011.91 1011.95 1011.96 1011.96 1011.98
1022.92 1022.80 1022.68 1022.54 1022.36 1022.13 1021.83 1021.47 1021.05 1020.59 1020.09 1019.56 1019.02 1018.47 1017.89 1017.29 1016.66 1016.00 1015.30 1014.58 1013.85 1013.13 1012.46 1011.86 1011.36 1010.97 1010.70 1010.56 1010.53 1010.58 1010.69 1010.83 1010.97 1011.08 1011.17 1011.22 1011.27 1011.33
1023.12 1022.95 1022.78 1022.59 1022.36 1022.08 1021.74 1021.33 1020.86 1020.35 1019.80 1019.22 1018.64 1018.05 1017.46 1016.85 1016.21 1015.55 1014.85 1014.13 1013.39 1012.65 1011.94 1011.30 1010.74 1010.30 1009.98 1009.80 1009.74 1009.78 1009.89 1010.05 1010.21 1010.36 1010.49 1010.59 1010.69 1010.80
1023.24 1023.00 1022.76 1022.50 1022.21 1021.87 1021.46 1020.98 1020.46 1019.88 1019.29 1018.68 1018.07 1017.47 1016.88 1016.29 1015.68 1015.06 1014.40 1013.72 1013.00 1012.28 1011.57 1010.91 1010.33 1009.85 1009.49 1009.26 1009.17 1009.18 1009.28 1009.43 1009.61 1009.78 1009.94 1010.09 1010.22 1010.38
1023.21 1022.91 1022.60 1022.27 1021.90 1021.49 1021.01 1020.47 1019.88 1019.26 1018.62 1017.99 1017.37 1016.78 1016.22 1015.67 1015.13 1014.58 1013.99 1013.38 1012.72 1012.05 1011.37 1010.72 1010.13 1009.62 1009.23 1008.96 1008.82 1008.79 1008.86 1008.99 1009.15 1009.33 1009.51 1009.67 1009.84 1010.02
1023.05 1022.69 1022.31 1021.92 1021.49 1021.01 1020.47 1019.87 1019.24 1018.58 1017.92 1017.27 1016.66 1016.10 1015.58 1015.10 1014.63 1014.16 1013.67 1013.14 1012.56 1011.95 1011.32 1010.70 1010.11 1009.59 1009.17 1008.85 1008.66 1008.57 1008.59 1008.67 1008.80 1008.95 1009.11 1009.28 1009.45 1009.65
1022.80 1022.39 1021.97 1021.52 1021.04 1020.51 1019.93 1019.29 1018.63 1017.94 1017.27 1016.63 1016.05 1015.52 1015.06 1014.64 1014.25 1013.87 1013.46 1013.02 1012.53 1011.98 1011.40 1010.81 1010.23 1009.69 1009.24 1008.87 1008.61 1008.45 1008.39 1008.40 1008.47 1008.57 1008.69 1008.83 1009.00 1009.19
1022.53 1022.09 1021.63 1021.15 1020.64 1020.07 1019.46 1018.80 1018.12 1017.44 1016.77 1016.15 1015.60 1015.11 1014.70 1014.35 1014.03 1013.72 1013.39 1013.02 1012.59 1012.10 1011.57 1011.00 1010.42 1009.87 1009.38 1008.95 1008.62 1008.38 1008.22 1008.14 1008.12 1008.14 1008.21 1008.30 1008.44 1008.62
1022.32 1021.85 1021.37 1020.86 1020.32 1019.73 1019.10 1018.44 1017.76 1017.09 1016.44 1015.85 1015.33 1014.89 1014.52 1014.22 1013.96 1013.70 1013.43 1013.12 1012.74 1012.29 1011.79 1011.23 1010.66 1010.09 1009.55 1009.07 1008.66 1008.33 1008.07 1007.88 1007.76 1007.70 1007.68 1007.72 1007.81 1007.97
1022.20 1021.71 1021.20 1020.66 1020.09 1019.49 1018.85 1018.18 1017.51 1016.86 1016.24 1015.68 1015.20 1014.80 1014.48 1014.22 1014.00 1013.79 1013.55 1013.27 1012.93 1012.52 1012.03 1011.49 1010.92 1010.33 1009.76 1009.23 1008.75 1008.33 1007.97 1007.69 1007.47 1007.31 1007.21 1007.18 1007.22 1007.35
1022.18 1021.66 1021.11 1020.54 1019.93 1019.31 1018.65 1017.99 1017.33 1016.70 1016.11 1015.59 1015.15 1014.79 1014.51 1014.29 1014.10 1013.92 1013.71 1013.46 1013.15 1012.76 1012.30 1011.77 1011.21 1010.62 1010.04 1009.47 1008.94 1008.45 1008.02 1007.65 1007.34 1007.10 1006.92 1006.83 1006.82 1006.90
1022.24 1021.66 1021.06 1020.44 1019.80 1019.13 1018.46 1017.79 1017.14 1016.53 1015.97 1015.49 1015.10 1014.78 1014.54 1014.35 1014.20 1014.05 1013.87 1013.65 1013.37 1013.01 1012.58 1012.09 1011.56 1010.99 1010.41 1009.85 1009.30 1008.78 1008.31 1007.88 1007.50 1007.19 1006.95 1006.80 1006.74 1006.77
1022.31 1021.68 1021.02 1020.34 1019.64 1018.93 1018.23 1017.55 1016.90 1016.31 1015.79 1015.35 1015.00 1014.73 1014.53 1014.38 1014.27 1014.15 1014.01 1013.83 1013.58 1013.27 1012.89 1012.46 1011.98 1011.46 1010.93 1010.39 1009.86 1009.35 1008.87 1008.42 1008.01 1007.67 1007.38 1007.18 1007.08 1007.07
1022.36 1021.67 1020.95 1020.21 1019.45 1018.70 1017.97 1017.27 1016.63 1016.05 1015.56 1015.16 1014.85 1014.63 1014.48 1014.37 1014.30 1014.22 1014.12 1013.98 1013.79 1013.54 1013.23 1012.86 1012.46 1012.02 1011.56 1011.08 1010.61 1010.14 1009.68 1009.24 1008.84 1008.48 1008.18 1007.95 1007.81 1007.77
1022.37 1021.64 1020.87 1020.07 1019.27 1018.48 1017.73 1017.02 1016.38 1015.82 1015.35 1014.99 1014.72 1014.53 1014.41 1014.35 1014.30 1014.26 1014.21 1014.11 1013.97 1013.79 1013.55 1013.26 1012.94 1012.59 1012.22 1011.83 1011.43 1011.02 1010.62 1010.23 1009.85 1009.51 1009.22 1008.99 1008.83 1008.77
1022.36 1021.60 1020.81 1019.98 1019.16 1018.35 1017.58 1016.86 1016.23 1015.68 1015.24 1014.89 1014.64 1014.48 1014.39 1014.34 1014.32 1014.30 1014.27 1014.21 1014.12 1013.98 1013.81 1013.60 1013.36 1013.09 1012.81 1012.50 1012.18 1011.86 1011.53 1011.19 1010.87 1010.57 1010.31 1010.09 1009.94 1009.86
1022.35 1021.61 1020.82 1020.00 1019.17 1018.36 1017.60 1016.89 1016.26 1015.72 1015.28 1014.95 1014.70 1014.54 1014.45 1014.39 1014.37 1014.35 1014.32 1014.28 1014.20 1014.09 1013.96 1013.80 1013.62 1013.42 1013.21 1012.98 1012.73 1012.48 1012.22 1011.96 1011.70 1011.46 1011.24 1011.07 1010.94 1010.87
1022.39 1021.69 1020.93 1020.15 1019.35 1018.57 1017.82 1017.13 1016.51 1015.98 1015.53 1015.18 1014.92 1014.73 1014.60 1014.52 1014.46 1014.41 1014.35 1014.28 1014.20 1014.09 1013.97 1013.83 1013.67 1013.51 1013.34 1013.17 1012.99 1012.80 1012.60 1012.41 1012.22 1012.04 1011.88 1011.76 1011.68 1011.64
Thickness
5559 5554 5548 5545 5539 5535 5530 5526 5523 5526 5527 5517 5508 5500 5491 5483 5476 5470 5466 5464 5459 5456 5453 5450 5449 5448 5449 5451 5453 5456 5460 5463 5468 5472 5477 5483 5489 5496
5540 5535 5529 5527 5523 5518 5514 5510 5506 5504 5508 5501 5491 5484 5474 5466 5460 5454 5451 5448 5445 5442 5441 5438 5436 5434 5434 5435 5437 5440 5442 5446 5449 5454 5458 5464 5470 5477
5525 5521 5515 5510 5506 5503 5500 5496 5491 5487 5487 5485 5473 5466 5458 5452 5448 5444 5440 5438 5437 5435 5432 5430 5428 5427 5426 5426 5426 5428 5430 5432 5434 5438 5442 5447 5453 5460
5511 5506 5502 5498 5492 5488 5484 5480 5475 5467 5463 5463 5458 5452 5447 5443 5440 5437 5435 5434 5432 5432 5429 5427 5425 5424 5423 5422 5421 5421 5421 5422 5423 5425 5429 5434 5439 5444
5497 5492 5488 5483 5478 5474 5467 5464 5459 5454 5448 5445 5444 5441 5439 5437 5435 5434 5431 5429 5429 5430 5429 5428 5427 5425 5423 5421 5419 5418 5416 5416 5416 5417 5419 5422 5427 5432
5483 5478 5474 5469 5463 5458 5454 5450 5445 5440 5436 5433 5433 5433 5433 5432 5430 5428 5427 5426 5425 5427 5429 5429 5429 5426 5424 5423 5420 5418 5416 5414 5413 5412 5413 5416 5420 5424
5471 5467 5462 5455 5448 5442 5439 5436 5432 5429 5426 5426 5427 5427 5427 5425 5422 5420 5420 5421 5422 5424 5427 5429 5429 5428 5427 5426 5423 5420 5417 5414 5412 5410 5410 5411 5414 5417
5459 5455 5450 5446 5440 5432 5428 5423 5420 5420 5421 5421 5421 5421 5421 5419 5417 5416 5416 5417 5420 5422 5422 5425 5426 5429 5429 5427 5425 5422 5418 5415 5412 5410 5408 5408 5409 5411
5447 5443 5439 5436 5429 5426 5422 5419 5419 5418 5417 5417 5418 5418 5417 5416 5414 5413 5412 5412 5414 5417 5418 5422 5426 5429 5428 5427 5424 5422 5418 5415 5412 5409 5408 5407 5407 5408
5437 5434 5430 5426 5423 5417 5415 5417 5419 5420 5419 5419 5418 5417 5415 5413 5410 5409 5409 5409 5411 5414 5415 5417 5421 5423 5425 5426 5424 5421 5419 5416 5413 5410 5408 5407 5406 5406
5428 5426 5422 5419 5415 5410 5411 5416 5419 5421 5421 5419 5417 5416 5414 5411 5408 5408 5409 5408 5408 5411 5411 5410 5414 5417 5422 5425 5423 5420 5418 5416 5414 5412 5409 5408 5406 5406
5420 5419 5417 5413 5409 5408 5410 5414 5417 5420 5420 5421 5420 5419 5417 5416 5412 5409 5407 5405 5403 5404 5405 5402 5406 5410 5416 5420 5420 5420 5418 5416 5414 5412 5410 5409 5407 5408
5412 5413 5413 5408 5408 5408 5409 5413 5415 5414 5419 5422 5422 5421 5419 5418 5415 5412 5408 5404 5401 5400 5399 5397 5400 5404 5407 5412 5417 5418 5417 5416 5414 5413 5410 5409 5408 5409
5407 5408 5409 5407 5408 5410 5413 5414 5414 5416 5421 5423 5422 5420 5417 5415 5414 5411 5409 5405 5402 5399 5397 5396 5397 5399 5402 5407 5411 5414 5415 5415 5414 5413 5412 5410 5408 5408
5403 5403 5405 5408 5411 5416 5417 5417 5418 5422 5422 5422 5420 5418 5415 5413 5411 5410 5408 5406 5404 5400 5398 5396 5396 5398 5400 5403 5406 5409 5412 5414 5413 5412 5412 5411 5411 5411
5401 5405 5407 5411 5414 5417 5420 5423 5424 5423 5422 5421 5420 5417 5415 5412 5409 5407 5406 5405 5403 5402 5400 5398 5398 5397 5398 5400 5404 5407 5409 5412 5413 5413 5413 5412 5412 5412
5395 5404 5409 5413 5416 5419 5423 5426 5427 5428 5427 5424 5422 5418 5415 5413 5410 5407 5405 5404 5402 5401 5401 5401 5402 5400 5398 5397 5402 5406 5409 5413 5414 5415 5415 5414 5413 5413
5396 5403 5406 5409 5412 5417 5422 5427 5430 5432 5431 5429 5427 5423 5419 5416 5413 5411 5408 5405 5403 5402 5402 5403 5405 5406 5403 5403 5396 5403 5409 5412 5414 5415 5416 5415 5414 5413
5398 5402 5404 5407 5412 5417 5423 5428 5432 5435 5436 5436 5433 5428 5424 5420 5418 5415 5412 5410 5407 5405 5404 5403 5404 5405 5405 5403 5402 5400 5406 5411 5413 5414 5414 5413 5413 5412
5398 5401 5404 5408 5413 5419 5425 5431 5435 5439 5441 5441 5438 5435 5430 5426 5423 5420 5416 5413 5410 5408 5406 5405 5404 5405 5405 5402 5401 5401 5403 5408 5411 5412 5412 5412 5411 5410
5399 5403 5407 5411 5417 5423 5430 5435 5439 5442 5444 5445 5444 5441 5437 5433 5428 5425 5421 5412 5412 5410 5408 5407 5406 5407 5408 5407 5406 5404 5404 5404 5407 5409 5412 5414 5413 5412
5399 5404 5410 5416 5422 5428 5434 5439 5443 5446 5447 5448 5447 5445 5442 5439 5435 5430 5427 5423 5420 5417 5415 5414 5414 5413 5411 5410 5407 5406 5406 5407 5407 5409 5410 5412 5413 5412
5401 5406 5414 5420 5426 5431 5436 5440 5444 5447 5447 5448 5449 5447 5446 5443 5441 5438 5435 5432 5429 5427 5425 5423 5423 5421 5419 5415 5412 5410 5410 5410 5410 5410 5408 5408 5410 5411